| time (UTC) | temp F | wind direction | speed MPH | gust MPH | rain 1hr in | rain 24hr in | rain mn in | humidity % | barometer mb |
| 20260506013019 | 57 | 221 | 12.0 | 26.0 | 0.00 | 0.00 | 0.00 | 32 | 1012.4 |
| 20260506012110 | 58 | 203 | 9.0 | 32.0 | 0.00 | 0.00 | 0.00 | 32 | 1012.3 |
| 20260506011100 | 58 | 230 | 11.0 | 22.0 | 0.00 | 0.00 | 0.00 | 33 | 1012.3 |
| 20260506010049 | 58 | 211 | 10.0 | 25.0 | 0.00 | 0.00 | 0.00 | 33 | 1012.2 |
| 20260506005040 | 58 | 218 | 11.0 | 18.0 | 0.00 | 0.00 | 0.00 | 33 | 1012.3 |
| 20260506004029 | 58 | 218 | 11.0 | 35.0 | 0.00 | 0.00 | 0.00 | 33 | 1012.4 |
| 20260506003019 | 58 | 216 | 10.0 | 24.0 | 0.00 | 0.00 | 0.00 | 34 | 1012.3 |
| 20260506002111 | 58 | 228 | 12.0 | 25.0 | 0.00 | 0.00 | 0.00 | 35 | 1012.3 |
| 20260506001101 | 58 | 215 | 12.0 | 26.0 | 0.00 | 0.00 | 0.00 | 36 | 1012.1 |
| 20260506000050 | 59 | 211 | 6.0 | 16.0 | 0.00 | 0.00 | 0.00 | 35 | 1011.9 |
| 20260505235041 | 59 | 221 | 13.0 | 26.0 | 0.00 | 0.00 | 0.00 | 35 | 1012.0 |
| 20260505234032 | 59 | 225 | 9.0 | 23.0 | 0.00 | 0.00 | 0.00 | 36 | 1012.2 |
| 20260505233021 | 59 | 220 | 12.0 | 27.0 | 0.00 | 0.00 | 0.00 | 38 | 1012.1 |
| 20260505232112 | 58 | 214 | 12.0 | 20.0 | 0.00 | 0.00 | 0.00 | 40 | 1012.1 |
| 20260505231102 | 58 | 226 | 9.0 | 18.0 | 0.00 | 0.00 | 0.00 | 45 | 1012.3 |
| 20260505230052 | 57 | 220 | 14.0 | 26.0 | 0.00 | 0.00 | 0.00 | 45 | 1012.3 |
| 20260505225042 | 57 | 216 | 13.0 | 26.0 | 0.00 | 0.00 | 0.00 | 46 | 1012.5 |
| 20260505224033 | 59 | 212 | 12.0 | 25.0 | 0.00 | 0.00 | 0.00 | 44 | 1012.5 |
| 20260505223023 | 59 | 218 | 11.0 | 25.0 | 0.00 | 0.00 | 0.00 | 45 | 1012.3 |
| 20260505222133 | 59 | 215 | 13.0 | 25.0 | 0.00 | 0.00 | 0.00 | 43 | 1012.2 |
| 20260505221103 | 59 | 224 | 12.0 | 27.0 | 0.00 | 0.00 | 0.00 | 43 | 1012.3 |
| 20260505220053 | 59 | 222 | 14.0 | 27.0 | 0.00 | 0.00 | 0.00 | 42 | 1012.4 |
| 20260505215044 | 59 | 220 | 11.0 | 21.0 | 0.00 | 0.00 | 0.00 | 42 | 1012.6 |
| 20260505214033 | 60 | 220 | 15.0 | 25.0 | 0.00 | 0.00 | 0.00 | 41 | 1012.5 |
| 20260505213023 | 60 | 220 | 14.0 | 27.0 | 0.00 | 0.00 | 0.00 | 43 | 1012.4 |
| 20260505212114 | 60 | 225 | 14.0 | 27.0 | 0.00 | 0.00 | 0.00 | 42 | 1013.0 |
| 20260505211104 | 59 | 234 | 14.0 | 26.0 | 0.00 | 0.00 | 0.00 | 43 | 1012.9 |
| 20260505210054 | 59 | 227 | 14.0 | 26.0 | 0.00 | 0.00 | 0.00 | 44 | 1013.1 |
| 20260505205044 | 60 | 230 | 17.0 | 29.0 | 0.00 | 0.00 | 0.00 | 43 | 1013.1 |
| 20260505204034 | 59 | 220 | 11.0 | 26.0 | 0.00 | 0.00 | 0.00 | 43 | 1013.3 |
| 20260505203024 | 60 | 209 | 14.0 | 36.0 | 0.00 | 0.00 | 0.00 | 43 | 1013.3 |
| 20260505202115 | 59 | 223 | 18.0 | 31.0 | 0.00 | 0.00 | 0.00 | 44 | 1013.4 |
| 20260505201105 | 58 | 221 | 12.0 | 26.0 | 0.00 | 0.00 | 0.00 | 45 | 1014.0 |
| 20260505200055 | 59 | 215 | 15.0 | 26.0 | 0.00 | 0.00 | 0.00 | 44 | 1013.7 |
| 20260505195045 | 60 | 222 | 14.0 | 27.0 | 0.00 | 0.00 | 0.00 | 43 | 1013.7 |
| 20260505194035 | 60 | 210 | 14.0 | 27.0 | 0.00 | 0.00 | 0.00 | 43 | 1013.9 |
| 20260505193025 | 60 | 224 | 14.0 | 26.0 | 0.00 | 0.00 | 0.00 | 45 | 1013.6 |
| 20260505192136 | 59 | 217 | 11.0 | 24.0 | 0.00 | 0.00 | 0.00 | 46 | 1013.6 |
| 20260505191106 | 59 | 221 | 11.0 | 28.0 | 0.00 | 0.00 | 0.00 | 45 | 1013.8 |
| 20260505190056 | 59 | 218 | 12.0 | 28.0 | 0.00 | 0.00 | 0.00 | 44 | 1013.9 |
| 20260505185106 | 60 | 220 | 11.0 | 28.0 | 0.00 | 0.00 | 0.00 | 43 | 1014.1 |
| 20260505184036 | 59 | 221 | 14.0 | 24.0 | 0.00 | 0.00 | 0.00 | 43 | 1014.0 |
| 20260505183046 | 59 | 226 | 18.0 | 25.0 | 0.00 | 0.00 | 0.00 | 42 | 1014.1 |
| 20260505182016 | 59 | 220 | 13.0 | 26.0 | 0.00 | 0.00 | 0.00 | 41 | 1013.8 |
| 20260505181106 | 59 | 222 | 15.0 | 26.0 | 0.00 | 0.00 | 0.00 | 41 | 1013.9 |
| 20260505180056 | 59 | 216 | 14.0 | 27.0 | 0.00 | 0.00 | 0.00 | 41 | 1013.7 |
| 20260505175107 | 58 | 216 | 10.0 | 23.0 | 0.00 | 0.00 | 0.00 | 41 | 1014.0 |
| 20260505174037 | 58 | 221 | 14.0 | 26.0 | 0.00 | 0.00 | 0.00 | 41 | 1014.1 |
| 20260505173027 | 57 | 208 | 15.0 | 21.0 | 0.00 | 0.00 | 0.00 | 42 | 1013.8 |
| 20260505172017 | 58 | 213 | 13.0 | 28.0 | 0.00 | 0.00 | 0.00 | 41 | 1013.8 |
| 20260505171128 | 59 | 194 | 18.0 | 20.0 | 0.00 | 0.00 | 0.00 | 39 | 1014.0 |
| 20260505170118 | 58 | 219 | 12.0 | 27.0 | 0.00 | 0.00 | 0.00 | 39 | 1013.8 |
| 20260505165048 | 58 | 219 | 13.0 | 23.0 | 0.00 | 0.00 | 0.00 | 40 | 1013.8 |
| 20260505164038 | 58 | 212 | 11.0 | 21.0 | 0.00 | 0.00 | 0.00 | 40 | 1014.1 |
| 20260505163027 | 58 | 220 | 11.0 | 24.0 | 0.00 | 0.00 | 0.00 | 40 | 1014.1 |
| 20260505162017 | 57 | 225 | 11.0 | 19.0 | 0.00 | 0.00 | 0.00 | 42 | 1014.0 |
| 20260505161108 | 58 | 218 | 14.0 | 25.0 | 0.00 | 0.00 | 0.00 | 40 | 1014.0 |
| 20260505153109 | 56 | 212 | 15.0 | 23.0 | 0.00 | 0.00 | 0.00 | 41 | 1013.8 |
| 20260505152019 | 56 | 221 | 12.0 | 28.0 | 0.00 | 0.00 | 0.00 | 40 | 1013.7 |
| 20260505151129 | 55 | 225 | 15.0 | 25.0 | 0.00 | 0.00 | 0.00 | 44 | 1013.5 |
| 20260505124041 | 56 | 214 | 13.0 | 23.0 | 0.00 | 0.00 | 0.00 | 36 | 1012.6 |
| 20260505123032 | 56 | 217 | 11.0 | 22.0 | 0.00 | 0.00 | 0.00 | 37 | 1012.4 |
| 20260505122022 | 56 | 235 | 9.0 | 23.0 | 0.00 | 0.00 | 0.00 | 37 | 1012.1 |
| 20260505121113 | 56 | 208 | 10.0 | 19.0 | 0.00 | 0.00 | 0.00 | 36 | 1012.2 |
| 20260505115053 | 56 | 224 | 11.0 | 20.0 | 0.00 | 0.00 | 0.00 | 36 | 1012.1 |
| 20260505114103 | 56 | 212 | 10.0 | 17.0 | 0.00 | 0.00 | 0.00 | 36 | 1012.0 |
| 20260505113032 | 56 | 212 | 11.0 | 20.0 | 0.00 | 0.00 | 0.00 | 37 | 1012.0 |
| 20260505112022 | 56 | 227 | 11.0 | 24.0 | 0.00 | 0.00 | 0.00 | 37 | 1011.9 |
| 20260505111113 | 56 | 232 | 10.0 | 28.0 | 0.00 | 0.00 | 0.00 | 37 | 1012.1 |
| 20260505102024 | 57 | 223 | 13.0 | 28.0 | 0.00 | 0.00 | 0.00 | 36 | 1011.8 |
| 20260505101115 | 57 | 212 | 15.0 | 28.0 | 0.00 | 0.00 | 0.00 | 36 | 1011.5 |
| 20260505100105 | 57 | 213 | 17.0 | 28.0 | 0.00 | 0.00 | 0.00 | 36 | 1011.9 |
| 20260505095055 | 57 | 215 | 16.0 | 32.0 | 0.00 | 0.00 | 0.00 | 36 | 1011.8 |
| 20260505094105 | 57 | 223 | 15.0 | 30.0 | 0.00 | 0.00 | 0.00 | 35 | 1011.8 |
| 20260505093035 | 57 | 221 | 15.0 | 32.0 | 0.00 | 0.00 | 0.00 | 36 | 1011.8 |
| 20260505092025 | 57 | 219 | 15.0 | 34.0 | 0.00 | 0.00 | 0.00 | 38 | 1011.7 |
| 20260505091116 | 57 | 225 | 14.0 | 23.0 | 0.00 | 0.00 | 0.00 | 38 | 1012.0 |
| 20260505090106 | 57 | 220 | 14.0 | 30.0 | 0.00 | 0.00 | 0.00 | 37 | 1012.1 |
| 20260505085117 | 57 | 208 | 11.0 | 20.0 | 0.00 | 0.00 | 0.00 | 37 | 1012.1 |
| 20260505084046 | 58 | 220 | 11.0 | 21.0 | 0.00 | 0.00 | 0.00 | 36 | 1012.5 |
| 20260505083036 | 58 | 225 | 9.0 | 21.0 | 0.00 | 0.00 | 0.00 | 35 | 1012.9 |
| 20260505082026 | 59 | 217 | 12.0 | 27.0 | 0.00 | 0.00 | 0.00 | 36 | 1013.1 |
| 20260505081016 | 58 | 213 | 9.0 | 18.0 | 0.00 | 0.00 | 0.00 | 37 | 1013.6 |
| 20260505080107 | 58 | 216 | 9.0 | 19.0 | 0.00 | 0.00 | 0.00 | 37 | 1013.9 |
| 20260505075057 | 58 | 230 | 6.0 | 21.0 | 0.00 | 0.00 | 0.00 | 36 | 1013.9 |
| 20260505074107 | 58 | 215 | 9.0 | 16.0 | 0.00 | 0.00 | 0.00 | 36 | 1014.0 |
| 20260505073037 | 58 | 221 | 11.0 | 18.0 | 0.00 | 0.00 | 0.00 | 35 | 1014.2 |
| 20260505072027 | 59 | 233 | 14.0 | 21.0 | 0.00 | 0.00 | 0.00 | 35 | 1014.1 |
| 20260505071017 | 59 | 223 | 15.0 | 25.0 | 0.00 | 0.00 | 0.00 | 34 | 1013.7 |
| 20260505070108 | 59 | 217 | 16.0 | 30.0 | 0.00 | 0.00 | 0.00 | 34 | 1013.4 |
| 20260505065058 | 59 | 219 | 15.0 | 27.0 | 0.00 | 0.00 | 0.00 | 31 | 1013.0 |
| 20260505064048 | 59 | 221 | 15.0 | 28.0 | 0.00 | 0.00 | 0.00 | 30 | 1012.9 |
| 20260505063058 | 60 | 226 | 13.0 | 25.0 | 0.00 | 0.00 | 0.00 | 29 | 1012.9 |
| 20260505062028 | 59 | 234 | 10.0 | 22.0 | 0.00 | 0.00 | 0.00 | 30 | 1013.4 |
| 20260505061017 | 59 | 223 | 11.0 | 21.0 | 0.00 | 0.00 | 0.00 | 31 | 1013.2 |
| 20260505060109 | 59 | 229 | 12.0 | 21.0 | 0.00 | 0.00 | 0.00 | 31 | 1013.4 |
| 20260505055059 | 59 | 225 | 10.0 | 21.0 | 0.00 | 0.00 | 0.00 | 31 | 1013.7 |
| 20260505054049 | 59 | 232 | 7.0 | 14.0 | 0.00 | 0.00 | 0.00 | 32 | 1014.1 |
| 20260505053059 | 59 | 230 | 9.0 | 16.0 | 0.00 | 0.00 | 0.00 | 31 | 1014.4 |
| 20260505052029 | 59 | 232 | 7.0 | 14.0 | 0.00 | 0.00 | 0.00 | 29 | 1014.6 |
| 20260505051018 | 61 | 239 | 9.0 | 15.0 | 0.00 | 0.00 | 0.00 | 27 | 1015.0 |
| 20260505050109 | 61 | 218 | 12.0 | 17.0 | 0.00 | 0.00 | 0.00 | 25 | 1015.1 |
| 20260505041039 | 62 | 205 | 9.0 | 14.0 | 0.00 | 0.00 | 0.00 | 24 | 1015.3 |
| 20260505040110 | 62 | 218 | 10.0 | 14.0 | 0.00 | 0.00 | 0.00 | 23 | 1015.2 |
| 20260505035101 | 62 | 224 | 9.0 | 15.0 | 0.00 | 0.00 | 0.00 | 24 | 1015.2 |
| 20260505034050 | 62 | 219 | 8.0 | 13.0 | 0.00 | 0.00 | 0.00 | 24 | 1015.1 |
| 20260505033040 | 62 | 220 | 8.0 | 14.0 | 0.00 | 0.00 | 0.00 | 24 | 1015.1 |
| 20260505032051 | 62 | 223 | 6.0 | 17.0 | 0.00 | 0.00 | 0.00 | 24 | 1014.8 |
| 20260505031020 | 63 | 228 | 11.0 | 20.0 | 0.00 | 0.00 | 0.00 | 22 | 1014.6 |
| 20260505030111 | 63 | 215 | 13.0 | 25.0 | 0.00 | 0.00 | 0.00 | 22 | 1014.2 |
| 20260505025101 | 63 | 220 | 11.0 | 17.0 | 0.00 | 0.00 | 0.00 | 22 | 1014.0 |
| 20260505024051 | 63 | 224 | 8.0 | 17.0 | 0.00 | 0.00 | 0.00 | 22 | 1013.9 |
| 20260505023041 | 63 | 216 | 12.0 | 19.0 | 0.00 | 0.00 | 0.00 | 22 | 1013.8 |
| 20260505022031 | 63 | 217 | 5.0 | 13.0 | 0.00 | 0.00 | 0.00 | 23 | 1013.8 |
| 20260505021041 | 63 | 212 | 6.0 | 15.0 | 0.00 | 0.00 | 0.00 | 22 | 1013.8 |
| 20260505020112 | 63 | 224 | 10.0 | 21.0 | 0.00 | 0.00 | 0.00 | 22 | 1014.1 |
| 20260505015102 | 63 | 229 | 6.0 | 17.0 | 0.00 | 0.00 | 0.00 | 22 | 1014.1 |
| 20260505014052 | 63 | 212 | 3.0 | 7.0 | 0.00 | 0.00 | 0.00 | 23 | 1014.1 |